User: anonymous   Login
Location: La Pernelle
(49.6188°N, 1.2999°W)
Time: 12:42:47
(UTC+00:00)
Language:

Aureole 1 Rocket - Orbit

View from above orbital plane
View from above orbital plane
View from above satellite
View from above satellite

Ground track
Ground track

The orbit data is extracted from the following two-line orbital elements,

1 05730U 71119B   21262.32326933  .00000798  00000-0  53430-4 0  9991
2 05730  73.8898 261.0072 0684416 196.1481 161.6847 14.05656018423892
Epoch (UTC): 19 September 2021 07:45:30
Eccentricity: 0.0684416
inclination: 73.8898°
perigee height: 378 km
apogee height: 1370 km
right ascension of ascending node: 261.0072°
argument of perigee: 196.1481°
revolutions per day: 14.05656018
mean anomaly at epoch: 161.6847°
orbit number at epoch: 42389

The dashed part of the orbit path shows where the satellite is in the earth's shadow,  

DLR